Regional Weather Roundup
Issued by NWS Little Rock, AR

Home | Current Version | Previous Version | Text Only | Print | Product List | Glossary Off
Versions: 1 2 3 4 5 6 7 8 9 10 11 12 13 14 15 16 17 18 19 20 21 22 23 24 25 26 27 28 29 30 31 32 33 34 35 36 37 38 39 40 41 42 43 44 45 46 47 48 49 50

000
ASUS44 KLZK 011205
RWRLZK

WEATHER ROUNDUP FOR ARKANSAS
NATIONAL WEATHER SERVICE LITTLE ROCK AR
700 AM CDT MON SEP 01 2014

NOTE: "FAIR" INDICATES FEW OR NO CLOUDS BELOW 12,000 FEET WITH NO
SIGNIFICANT WEATHER AND/OR OBSTRUCTIONS TO VISIBILITY.

ARZ001-003-010-029-011300-
NORTHWEST ARKANSAS

CITY           SKY/WX    TMP DP  RH WIND       PRES   REMARKS
FAYETTEVILLE   CLOUDY    71  64  78 VRB5      30.02R
6HR MIN TEMP:  71; 6HR MAX TEMP:  76;

FORT SMITH     CLOUDY    77  69  76 SE5       29.96R
6HR MIN TEMP:  75; 6HR MAX TEMP:  79;

HARRISON       LGT RAIN  66  64  93 N14G26    30.05R
6HR MIN TEMP:  67; 6HR MAX TEMP:  76; 6HR PCP: TRACE;

BENTONVILLE    CLOUDY    64  61  88 E12       30.03S
6HR MIN TEMP:  64; 6HR MAX TEMP:  77; 6HR PCP:  0.30;

ROGERS         LGT RAIN  64  62  93 E12       30.03F
6HR MIN TEMP:  64; 6HR MAX TEMP:  76; 6HR PCP:  0.27;

HIGHFILL       LGT RAIN  65  50  59 E12       30.02R
6HR MIN TEMP:  65; 6HR MAX TEMP:  77; 6HR PCP:  0.11;

SPRINGDALE     LGT RAIN  66  63  88 E14       30.04S
$$

ARZ004-005-016-011300-
NORTH CENTRAL ARKANSAS

CITY           SKY/WX    TMP DP  RH WIND       PRES   REMARKS
BATESVILLE     MOCLDY    75  72  88 SW5       30.02R
6HR MIN TEMP:  73; 6HR MAX TEMP:  77;

FLIPPIN        MOCLDY    72  66  83 NW3       30.01R
6HR MIN TEMP:  72; 6HR MAX TEMP:  75;

MTN HOME       PTCLDY    72  69  90 CALM      30.00R
6HR MIN TEMP:  71; 6HR MAX TEMP:  75;

$$

ARZ040-041-011300-
WEST CENTRAL ARKANSAS

CITY           SKY/WX    TMP DP  RH WIND       PRES   REMARKS
MENA           CLOUDY    77  72  83 CALM      29.97S
MOUNT IDA      CLOUDY    77  71  82 VRB3      29.95R
6HR MIN TEMP:  76; 6HR MAX TEMP:  78;

$$

ARZ009-017-025-026-028-011300-
NORTHEAST ARKANSAS

CITY           SKY/WX    TMP DP  RH WIND       PRES   REMARKS
CORNING          N/A     73  73 100 SW9       30.01R
JONESBORO      CLOUDY    76  72  87 SW9       30.02R
6HR MIN TEMP:  74; 6HR MAX TEMP:  76;

NEWPORT        CLOUDY    75  73  93 S7        30.02R
6HR MIN TEMP:  73; 6HR MAX TEMP:  75;

WALNUT RIDGE   CLEAR     73  66  78 S7        30.01R
6HR MIN TEMP:  73; 6HR MAX TEMP:  75;

BLYTHEVILLE    CLOUDY    76  75  97 S6        30.03R
6HR MIN TEMP:  75; 6HR MAX TEMP:  77; 6HR PCP: TRACE;

$$

ARZ022-023-033-042-044-011300-
CENTRAL ARKANSAS

CITY           SKY/WX    TMP DP  RH WIND       PRES   REMARKS
LITTLE ROCK    CLOUDY    76  72  87 S13       29.98R
6HR MIN TEMP:  75; 6HR MAX TEMP:  77;

N LITTLE ROCK    N/A     76  74  93 SW10G16   29.98R
6HR MIN TEMP:  74; 6HR MAX TEMP:  76;

JACKSONVILLE   CLOUDY    76  73  90 S10       29.99R
6HR MIN TEMP:  75; 6HR MAX TEMP:  76;

SEARCY         CLOUDY    74  73  96 W3        30.02R
6HR MIN TEMP:  72; 6HR MAX TEMP:  75;

HOT SPRINGS    CLOUDY    76  72  87 SW6       29.99R
6HR MIN TEMP:  76; 6HR MAX TEMP:  77;

RUSSELLVILLE   CLOUDY    77  70  79 N7        29.99R
6HR MIN TEMP:  73; 6HR MAX TEMP:  77;

CLINTON        CLOUDY    73  73 100 CALM      30.03R
$$

ARZ036-011300-
EAST ARKANSAS

CITY           SKY/WX    TMP DP  RH WIND       PRES   REMARKS
WEST MEMPHIS   CLOUDY    76  76 100 S7        30.02R
6HR MIN TEMP:  75; 6HR MAX TEMP:  76;

$$

ARZ050-053-066-070-073-011300-
SOUTHWEST ARKANSAS

CITY           SKY/WX    TMP DP  RH WIND       PRES   REMARKS
ARKADELPHIA    CLOUDY    74  74 100 CALM      29.99R
6HR MIN TEMP:  73; 6HR MAX TEMP:  74;

CAMDEN         CLOUDY    73  72  94 S6        29.99S FOG
TEXARKANA      MOCLDY    76  74  93 S8        29.97R
6HR MIN TEMP:  75; 6HR MAX TEMP:  77;

EL DORADO      CLOUDY    73  72  96 S3        30.00R FOG
6HR MIN TEMP:  72; 6HR MAX TEMP:  74;

DE QUEEN       CLOUDY    76  73  91 VRB6      29.94R
6HR MIN TEMP:  74; 6HR MAX TEMP:  77;

$$

ARZ056-057-069-011300-
SOUTHEAST ARKANSAS

CITY           SKY/WX    TMP DP  RH WIND       PRES   REMARKS
PINE BLUFF     PTCLDY    72  70  93 S6        30.00R
6HR MIN TEMP:  71; 6HR MAX TEMP:  74;

STUTTGART      CLEAR     73  70  88 S12       30.01R
6HR MIN TEMP:  73; 6HR MAX TEMP:  75;

MONTICELLO     CLEAR     73  71  93 S3        30.01S
6HR MIN TEMP:  73; 6HR MAX TEMP:  77;


$$





USA.gov is the U.S. government's official web portal to all federal, state and local government web resources and services.